| time (UTC) | temp F | wind direction | speed knots | gust knots | rain 1hr in | rain 24hr in | rain mn in | humidity % | barometer mb |
| 20260905223309 | 71 | 225 | 0.0 | 38.2 | 0.00 | 0.00 | 0.00 | 51 | 1025.9 |
| 20260905222807 | 71 | 225 | 0.0 | 30.4 | 0.00 | 0.00 | 0.00 | 51 | 1025.8 |
| 20260905222306 | 71 | 180 | 8.7 | 20.0 | 0.00 | 0.00 | 0.00 | 51 | 1025.7 |
| 20260905221259 | 72 | 225 | 0.0 | 19.1 | 0.00 | 0.00 | 0.00 | 51 | 1025.5 |
| 20260905220757 | 72 | 225 | 2.6 | 20.9 | 0.00 | 0.00 | 0.00 | 51 | 1025.5 |
| 20260905220255 | 72 | 180 | 0.9 | 20.0 | 0.00 | 0.00 | 0.00 | 50 | 1025.5 |
| 20260905215752 | 72 | 225 | 0.9 | 33.9 | 0.00 | 0.00 | 0.00 | 50 | 1025.5 |
| 20260905215250 | 72 | 225 | 0.9 | 20.0 | 0.00 | 0.00 | 0.00 | 50 | 1025.4 |
| 20260905214245 | 72 | 135 | 33.9 | 34.8 | 0.00 | 0.00 | 0.00 | 50 | 1025.3 |
| 20260905213742 | 72 | 270 | 0.0 | 34.8 | 0.00 | 0.00 | 0.00 | 50 | 1025.3 |
| 20260905213240 | 71 | 180 | 1.7 | 28.7 | 0.00 | 0.00 | 0.00 | 50 | 1025.3 |
| 20260905212738 | 71 | 180 | 0.0 | 33.0 | 0.00 | 0.00 | 0.00 | 50 | 1025.3 |
| 20260905212235 | 72 | 180 | 0.0 | 34.8 | 0.00 | 0.00 | 0.00 | 50 | 1025.2 |
| 20260905211733 | 72 | 225 | 0.9 | 38.2 | 0.00 | 0.00 | 0.00 | 50 | 1025.1 |
| 20260905211230 | 72 | 225 | 1.7 | 21.7 | 0.00 | 0.00 | 0.00 | 50 | 1025.2 |
| 20260905210226 | 72 | 180 | 18.2 | 30.4 | 0.00 | 0.00 | 0.00 | 50 | 1025.0 |
| 20260905205723 | 71 | 180 | 1.7 | 33.0 | 0.00 | 0.00 | 0.00 | 50 | 1025.0 |
| 20260905205221 | 71 | 180 | 1.7 | 19.1 | 0.00 | 0.00 | 0.00 | 49 | 1025.0 |
| 20260905204718 | 71 | 180 | 0.9 | 19.1 | 0.00 | 0.00 | 0.00 | 49 | 1025.0 |
| 20260905204216 | 71 | 180 | 11.3 | 33.9 | 0.00 | 0.00 | 0.00 | 49 | 1025.0 |
| 20260905203714 | 71 | 180 | 0.9 | 19.1 | 0.00 | 0.00 | 0.00 | 49 | 1025.0 |
| 20260905203211 | 71 | 225 | 0.9 | 19.1 | 0.00 | 0.00 | 0.00 | 49 | 1025.0 |
| 20260905202206 | 71 | 225 | 0.0 | 18.2 | 0.00 | 0.00 | 0.00 | 49 | 1024.9 |
| 20260905201704 | 71 | 225 | 0.9 | 34.8 | 0.00 | 0.00 | 0.00 | 49 | 1024.9 |
| 20260905201201 | 71 | 180 | 0.0 | 18.2 | 0.00 | 0.00 | 0.00 | 48 | 1024.9 |
| 20260905200659 | 72 | 315 | 13.0 | 17.4 | 0.00 | 0.00 | 0.00 | 48 | 1024.8 |
| 20260905200157 | 72 | 270 | 0.0 | 18.2 | 0.00 | 0.00 | 0.00 | 48 | 1024.8 |
| 20260905195654 | 73 | 180 | 0.0 | 20.0 | 0.00 | 0.00 | 0.00 | 48 | 1024.7 |
| 20260905195152 | 73 | 225 | 2.6 | 33.9 | 0.00 | 0.00 | 0.00 | 48 | 1024.7 |
| 20260905194649 | 73 | 225 | 0.9 | 20.0 | 0.00 | 0.00 | 0.00 | 48 | 1024.6 |
| 20260905194147 | 73 | 225 | 16.5 | 20.0 | 0.00 | 0.00 | 0.00 | 47 | 1024.5 |
| 20260905193645 | 73 | 225 | 0.0 | 19.1 | 0.00 | 0.00 | 0.00 | 47 | 1024.4 |
| 20260905193142 | 74 | 225 | 5.2 | 20.0 | 0.00 | 0.00 | 0.00 | 47 | 1024.5 |
| 20260905192640 | 74 | 180 | 17.4 | 30.4 | 0.00 | 0.00 | 0.00 | 47 | 1024.5 |
| 20260905192137 | 74 | 180 | 0.9 | 35.6 | 0.00 | 0.00 | 0.00 | 47 | 1024.4 |
| 20260905191635 | 74 | 225 | 1.7 | 38.2 | 0.00 | 0.00 | 0.00 | 47 | 1024.4 |
| 20260905191133 | 74 | 180 | 14.8 | 19.1 | 0.00 | 0.00 | 0.00 | 47 | 1024.3 |
| 20260905190630 | 74 | 270 | 0.9 | 31.3 | 0.00 | 0.00 | 0.00 | 47 | 1024.3 |
| 20260905190128 | 74 | 180 | 1.7 | 20.9 | 0.00 | 0.00 | 0.00 | 46 | 1024.3 |
| 20260905185625 | 74 | 135 | 1.7 | 30.4 | 0.00 | 0.00 | 0.00 | 46 | 1024.3 |
| 20260905185123 | 74 | 225 | 18.2 | 18.2 | 0.00 | 0.00 | 0.00 | 46 | 1024.2 |
| 20260905184621 | 75 | 180 | 0.9 | 43.4 | 0.00 | 0.00 | 0.00 | 46 | 1024.1 |
| 20260905184118 | 75 | 180 | 0.9 | 20.0 | 0.00 | 0.00 | 0.00 | 46 | 1024.0 |
| 20260905183616 | 75 | 225 | 17.4 | 20.9 | 0.00 | 0.00 | 0.00 | 45 | 1024.0 |
| 20260905183113 | 75 | 270 | 1.7 | 26.1 | 0.00 | 0.00 | 0.00 | 45 | 1023.9 |
| 20260905182611 | 75 | 180 | 0.9 | 31.3 | 0.00 | 0.00 | 0.00 | 45 | 1023.8 |
| 20260905182108 | 75 | 225 | 1.7 | 25.2 | 0.00 | 0.00 | 0.00 | 45 | 1023.7 |
| 20260905181606 | 75 | 225 | 0.9 | 21.7 | 0.00 | 0.00 | 0.00 | 45 | 1023.7 |
| 20260905181104 | 75 | 180 | 17.4 | 18.2 | 0.00 | 0.00 | 0.00 | 44 | 1023.7 |
| 20260905180601 | 75 | 180 | 0.0 | 18.2 | 0.00 | 0.00 | 0.00 | 44 | 1023.6 |
| 20260905180059 | 75 | 180 | 0.0 | 17.4 | 0.00 | 0.00 | 0.00 | 44 | 1023.5 |
| 20260905175556 | 76 | 225 | 0.9 | 35.6 | 0.00 | 0.00 | 0.00 | 43 | 1023.4 |
| 20260905175054 | 76 | 225 | 0.9 | 20.0 | 0.00 | 0.00 | 0.00 | 43 | 1023.4 |
| 20260905174552 | 76 | 270 | 15.6 | 19.1 | 0.00 | 0.00 | 0.00 | 43 | 1023.3 |
| 20260905174049 | 76 | 225 | 2.6 | 37.4 | 0.00 | 0.00 | 0.00 | 42 | 1023.2 |
| 20260905173547 | 76 | 225 | 3.5 | 19.1 | 0.00 | 0.00 | 0.00 | 42 | 1023.1 |
| 20260905173044 | 77 | 225 | 1.7 | 19.1 | 0.00 | 0.00 | 0.00 | 42 | 1023.1 |
| 20260905172542 | 77 | 225 | 17.4 | 33.0 | 0.00 | 0.00 | 0.00 | 41 | 1023.0 |
| 20260905172040 | 77 | 270 | 25.2 | 33.0 | 0.00 | 0.00 | 0.00 | 41 | 1023.1 |
| 20260905171537 | 77 | 180 | 1.7 | 34.8 | 0.00 | 0.00 | 0.00 | 41 | 1022.9 |
| 20260905171035 | 78 | 180 | 3.5 | 19.1 | 0.00 | 0.00 | 0.00 | 40 | 1022.9 |
| 20260905170532 | 78 | 225 | 3.5 | 40.0 | 0.00 | 0.00 | 0.00 | 40 | 1022.9 |
| 20260905170030 | 79 | 225 | 2.6 | 20.9 | 0.00 | 0.00 | 0.00 | 39 | 1022.9 |
| 20260905165527 | 81 | 270 | 2.6 | 19.1 | 0.00 | 0.00 | 0.00 | 38 | 1022.9 |
| 20260905165025 | 81 | 225 | 3.5 | 21.7 | 0.00 | 0.00 | 0.00 | 39 | 1022.9 |
| 20260905164523 | 82 | 180 | 2.6 | 32.2 | 0.00 | 0.00 | 0.00 | 38 | 1022.7 |
| 20260905164020 | 82 | 225 | 5.2 | 22.6 | 0.00 | 0.00 | 0.00 | 38 | 1022.7 |
| 20260905163518 | 83 | 180 | 1.7 | 30.4 | 0.00 | 0.00 | 0.00 | 38 | 1022.7 |
| 20260905163015 | 84 | 270 | 1.7 | 33.0 | 0.00 | 0.00 | 0.00 | 38 | 1022.6 |
| 20260905162513 | 84 | 180 | 5.2 | 33.9 | 0.00 | 0.00 | 0.00 | 37 | 1022.5 |
| 20260905162011 | 84 | 180 | 4.3 | 20.9 | 0.00 | 0.00 | 0.00 | 37 | 1022.5 |
| 20260905161508 | 84 | 180 | 1.7 | 30.4 | 0.00 | 0.00 | 0.00 | 38 | 1022.5 |
| 20260905161006 | 85 | 180 | 17.4 | 34.8 | 0.00 | 0.00 | 0.00 | 37 | 1022.5 |
| 20260905160503 | 85 | 180 | 18.2 | 27.8 | 0.00 | 0.00 | 0.00 | 37 | 1022.4 |
| 20260905160001 | 85 | 270 | 17.4 | 33.9 | 0.00 | 0.00 | 0.00 | 38 | 1022.5 |
| 20260905155458 | 85 | 135 | 3.5 | 21.7 | 0.00 | 0.00 | 0.00 | 38 | 1022.4 |
| 20260905154956 | 85 | 180 | 5.2 | 30.4 | 0.00 | 0.00 | 0.00 | 38 | 1022.5 |
| 20260905154454 | 86 | 225 | 28.7 | 31.3 | 0.00 | 0.00 | 0.00 | 38 | 1022.5 |
| 20260905153951 | 86 | 225 | 17.4 | 28.7 | 0.00 | 0.00 | 0.00 | 39 | 1022.5 |
| 20260905153449 | 88 | 225 | 15.6 | 54.7 | 0.00 | 0.00 | 0.00 | 40 | 1022.5 |
| 20260905152946 | 87 | 270 | 2.6 | 37.4 | 0.00 | 0.00 | 0.00 | 39 | 1022.4 |
| 20260905152444 | 86 | 135 | 6.1 | 19.1 | 0.00 | 0.00 | 0.00 | 39 | 1022.3 |
| 20260905151942 | 86 | 180 | 32.2 | 58.2 | 0.00 | 0.00 | 0.00 | 39 | 1022.3 |
| 20260905151439 | 86 | 225 | 4.3 | 33.0 | 0.00 | 0.00 | 0.00 | 40 | 1022.4 |
| 20260905150937 | 89 | 45 | 0.9 | 40.0 | 0.00 | 0.00 | 0.00 | 42 | 1022.3 |
| 20260905150434 | 87 | 225 | 17.4 | 32.2 | 0.00 | 0.00 | 0.00 | 41 | 1022.4 |
| 20260905145932 | 87 | 180 | 5.2 | 30.4 | 0.00 | 0.00 | 0.00 | 40 | 1022.4 |
| 20260905145429 | 87 | 180 | 4.3 | 27.8 | 0.00 | 0.00 | 0.00 | 41 | 1022.4 |
| 20260905144927 | 87 | 180 | 9.6 | 41.7 | 0.00 | 0.00 | 0.00 | 41 | 1022.2 |
| 20260905144425 | 87 | 225 | 0.9 | 32.2 | 0.00 | 0.00 | 0.00 | 43 | 1022.4 |
| 20260905143922 | 87 | 225 | 5.2 | 20.0 | 0.00 | 0.00 | 0.00 | 43 | 1022.5 |
| 20260905143420 | 87 | 225 | 7.8 | 32.2 | 0.00 | 0.00 | 0.00 | 43 | 1022.4 |
| 20260905142917 | 86 | 225 | 17.4 | 33.0 | 0.00 | 0.00 | 0.00 | 44 | 1022.4 |
| 20260905142415 | 88 | 225 | 1.7 | 33.0 | 0.00 | 0.00 | 0.00 | 46 | 1022.4 |
| 20260905141913 | 89 | 270 | 13.9 | 26.1 | 0.00 | 0.00 | 0.00 | 46 | 1022.5 |
| 20260905141410 | 88 | 270 | 2.6 | 32.2 | 0.00 | 0.00 | 0.00 | 45 | 1022.4 |
| 20260905140908 | 87 | 270 | 1.7 | 39.1 | 0.00 | 0.00 | 0.00 | 47 | 1022.5 |
| 20260905135903 | 86 | 315 | 2.6 | 33.9 | 0.00 | 0.00 | 0.00 | 48 | 1022.5 |
| 20260905135401 | 87 | 270 | 4.3 | 47.8 | 0.00 | 0.00 | 0.00 | 48 | 1022.4 |
| 20260905134858 | 85 | 225 | 13.9 | 36.5 | 0.00 | 0.00 | 0.00 | 48 | 1022.4 |
| 20260905134356 | 86 | 225 | 16.5 | 35.6 | 0.00 | 0.00 | 0.00 | 48 | 1022.5 |
| 20260905133456 | 32 | 180 | 3.5 | 26.9 | 0.00 | 0.00 | 0.00 | 100 | 30.0 |
| 20260905132956 | 32 | 225 | 2.6 | 27.8 | 0.00 | 0.00 | 0.00 | 100 | 30.0 |
| 20260905132456 | 32 | 270 | 0.9 | 167.7 | 0.00 | 0.00 | 0.00 | 100 | 30.0 |
| 20260905131359 | 32 | 180 | 3.5 | 340.6 | 0.00 | 0.00 | 0.00 | 100 | 30.0 |
| 20260905130512 | 85 | 180 | 2.6 | 24.3 | 0.00 | 0.00 | 0.00 | 54 | 1022.9 |
| 20260905130009 | 84 | 225 | 13.0 | 47.8 | 0.00 | 0.00 | 0.00 | 53 | 1022.9 |
| 20260905125507 | 84 | 180 | 2.6 | 26.9 | 0.00 | 0.00 | 0.00 | 55 | 1022.9 |
| 20260905125005 | 85 | 180 | 7.0 | 33.9 | 0.00 | 0.00 | 0.00 | 54 | 1022.9 |
| 20260905124502 | 86 | 0 | 4.3 | 28.7 | 0.00 | 0.00 | 0.00 | 56 | 1023.1 |
| 20260905124000 | 85 | 225 | 5.2 | 37.4 | 0.00 | 0.00 | 0.00 | 56 | 1022.9 |
| 20260905123457 | 85 | 180 | 18.2 | 28.7 | 0.00 | 0.00 | 0.00 | 56 | 1022.9 |
| 20260905122955 | 83 | 180 | 2.6 | 32.2 | 0.00 | 0.00 | 0.00 | 56 | 1023.1 |
| 20260905122453 | 84 | 180 | 16.5 | 33.9 | 0.00 | 0.00 | 0.00 | 56 | 1023.0 |
| 20260905121950 | 84 | 180 | 4.3 | 31.3 | 0.00 | 0.00 | 0.00 | 56 | 1022.8 |
| 20260905120945 | 84 | 270 | 1.7 | 36.5 | 0.00 | 0.00 | 0.00 | 57 | 1022.9 |
| 20260905120443 | 83 | 270 | 0.9 | 36.5 | 0.00 | 0.00 | 0.00 | 58 | 1023.0 |
| 20260905115940 | 82 | 180 | 18.2 | 45.2 | 0.00 | 0.00 | 0.00 | 57 | 1022.9 |
| 20260905115438 | 82 | 45 | 3.5 | 36.5 | 0.00 | 0.00 | 0.00 | 57 | 1022.8 |
| 20260905114936 | 84 | 180 | 2.6 | 21.7 | 0.00 | 0.00 | 0.00 | 60 | 1023.0 |
| 20260905114433 | 83 | 180 | 6.1 | 38.2 | 0.00 | 0.00 | 0.00 | 58 | 1023.1 |
| 20260905113931 | 82 | 180 | 2.6 | 40.8 | 0.00 | 0.00 | 0.00 | 59 | 1023.2 |
| 20260905113428 | 82 | 225 | 3.5 | 36.5 | 0.00 | 0.00 | 0.00 | 60 | 1023.1 |
| 20260905112926 | 82 | 180 | 6.1 | 39.1 | 0.00 | 0.00 | 0.00 | 61 | 1023.0 |
| 20260905112424 | 79 | 225 | 3.5 | 53.0 | 0.00 | 0.00 | 0.00 | 60 | 1023.1 |
| 20260905111921 | 79 | 180 | 22.6 | 39.1 | 0.00 | 0.00 | 0.00 | 61 | 1023.0 |
| 20260905111419 | 81 | 225 | 21.7 | 41.7 | 0.00 | 0.00 | 0.00 | 62 | 1023.1 |
| 20260905110916 | 80 | 225 | 5.2 | 55.6 | 0.00 | 0.00 | 0.00 | 62 | 1023.1 |
| 20260905110414 | 80 | 225 | 14.8 | 22.6 | 0.00 | 0.00 | 0.00 | 64 | 1023.1 |
| 20260905105912 | 81 | 180 | 2.6 | 26.1 | 0.00 | 0.00 | 0.00 | 64 | 1023.0 |
| 20260905105409 | 79 | 180 | 7.8 | 38.2 | 0.00 | 0.00 | 0.00 | 64 | 1022.9 |
| 20260905103359 | 76 | 225 | 12.2 | 42.6 | 0.00 | 0.00 | 0.00 | 67 | 1023.1 |
| 20260905102857 | 76 | 225 | 6.1 | 40.0 | 0.00 | 0.00 | 0.00 | 68 | 1023.2 |
| 20260905102355 | 77 | 180 | 22.6 | 36.5 | 0.00 | 0.00 | 0.00 | 69 | 1023.1 |
| 20260905101852 | 75 | 225 | 2.6 | 36.5 | 0.00 | 0.00 | 0.00 | 71 | 1023.3 |
| 20260905101350 | 74 | 225 | 2.6 | 29.5 | 0.00 | 0.00 | 0.00 | 70 | 1023.3 |
| 20260905100847 | 74 | 180 | 7.0 | 51.3 | 0.00 | 0.00 | 0.00 | 70 | 1023.2 |
| 20260905100345 | 74 | 225 | 4.3 | 20.9 | 0.00 | 0.00 | 0.00 | 70 | 1023.3 |
| 20260905095843 | 73 | 225 | 2.6 | 34.8 | 0.00 | 0.00 | 0.00 | 70 | 1023.3 |
| 20260905095340 | 73 | 180 | 4.3 | 39.1 | 0.00 | 0.00 | 0.00 | 70 | 1023.2 |
| 20260905094838 | 73 | 225 | 3.5 | 33.9 | 0.00 | 0.00 | 0.00 | 70 | 1023.4 |
| 20260905094335 | 72 | 225 | 14.8 | 25.2 | 0.00 | 0.00 | 0.00 | 69 | 1023.2 |
| 20260905093833 | 72 | 180 | 1.7 | 45.2 | 0.00 | 0.00 | 0.00 | 70 | 1023.1 |
| 20260905093331 | 72 | 225 | 1.7 | 20.0 | 0.00 | 0.00 | 0.00 | 69 | 1023.0 |
| 20260905092828 | 71 | 225 | 1.7 | 35.6 | 0.00 | 0.00 | 0.00 | 69 | 1023.1 |
| 20260905092326 | 71 | 180 | 24.3 | 25.2 | 0.00 | 0.00 | 0.00 | 69 | 1023.1 |
| 20260905091823 | 71 | 180 | 31.3 | 36.5 | 0.00 | 0.00 | 0.00 | 68 | 1023.1 |
| 20260905090819 | 71 | 225 | 33.0 | 33.0 | 0.00 | 0.00 | 0.00 | 68 | 1023.1 |
| 20260905090316 | 70 | 315 | 0.0 | 32.2 | 0.00 | 0.00 | 0.00 | 69 | 1022.9 |
| 20260905085814 | 69 | 180 | 0.9 | 22.6 | 0.00 | 0.00 | 0.00 | 68 | 1023.0 |
| 20260905085311 | 69 | 225 | 2.6 | 20.9 | 0.00 | 0.00 | 0.00 | 67 | 1023.1 |
| 20260905084809 | 69 | 225 | 1.7 | 22.6 | 0.00 | 0.00 | 0.00 | 67 | 1023.0 |
| 20260905083302 | 68 | 180 | 0.9 | 18.2 | 0.00 | 0.00 | 0.00 | 66 | 1023.1 |
| 20260905081754 | 66 | 180 | 0.0 | 20.0 | 0.00 | 0.00 | 0.00 | 64 | 1023.3 |
| 20260905081252 | 65 | 180 | 0.0 | 22.6 | 0.00 | 0.00 | 0.00 | 63 | 1023.4 |
| 20260905080750 | 65 | 180 | 0.9 | 23.5 | 0.00 | 0.00 | 0.00 | 62 | 1023.5 |
| 20260905080247 | 65 | 225 | 19.1 | 29.5 | 0.00 | 0.00 | 0.00 | 61 | 1023.6 |
| 20260905075745 | 66 | 180 | 0.0 | 20.9 | 0.00 | 0.00 | 0.00 | 61 | 1023.6 |
| 20260905075242 | 68 | 180 | 0.9 | 30.4 | 0.00 | 0.00 | 0.00 | 60 | 1023.6 |
| 20260905074740 | 70 | 225 | 0.9 | 37.4 | 0.00 | 0.00 | 0.00 | 61 | 1023.6 |
| 20260905074237 | 70 | 180 | 0.9 | 24.3 | 0.00 | 0.00 | 0.00 | 61 | 1023.6 |
| 20260905073735 | 69 | 180 | 2.6 | 19.1 | 0.00 | 0.00 | 0.00 | 61 | 1023.7 |
| 20260905073233 | 69 | 180 | 0.0 | 10.4 | 0.00 | 0.00 | 0.00 | 61 | 1023.7 |
| 20260905072730 | 68 | 180 | 0.9 | 20.0 | 0.00 | 0.00 | 0.00 | 60 | 1023.7 |
| 20260905072228 | 68 | 225 | 0.0 | 20.9 | 0.00 | 0.00 | 0.00 | 60 | 1023.5 |
| 20260905071725 | 68 | 180 | 0.9 | 33.9 | 0.00 | 0.00 | 0.00 | 60 | 1023.4 |
| 20260905071223 | 68 | 225 | 0.9 | 37.4 | 0.00 | 0.00 | 0.00 | 60 | 1023.8 |
| 20260905070721 | 68 | 180 | 1.7 | 23.5 | 0.00 | 0.00 | 0.00 | 60 | 1023.8 |
| 20260905070218 | 68 | 180 | 20.0 | 26.9 | 0.00 | 0.00 | 0.00 | 59 | 1023.7 |
| 20260905065716 | 68 | 180 | 2.6 | 19.1 | 0.00 | 0.00 | 0.00 | 59 | 1023.5 |
| 20260905065213 | 67 | 225 | 0.0 | 33.0 | 0.00 | 0.00 | 0.00 | 59 | 1023.1 |
| 20260905064711 | 67 | 180 | 15.6 | 15.6 | 0.00 | 0.00 | 0.00 | 59 | 1022.9 |
| 20260905064208 | 67 | 180 | 0.0 | 20.0 | 0.00 | 0.00 | 0.00 | 59 | 1023.0 |
| 20260905063706 | 67 | 225 | 0.0 | 0.9 | 0.00 | 0.00 | 0.00 | 58 | 1023.0 |
| 20260905063204 | 68 | 315 | 0.0 | 19.1 | 0.00 | 0.00 | 0.00 | 58 | 1023.0 |
| 20260905062701 | 68 | 225 | 0.0 | 20.9 | 0.00 | 0.00 | 0.00 | 57 | 1023.5 |
| 20260905062159 | 68 | 180 | 1.7 | 20.0 | 0.00 | 0.00 | 0.00 | 57 | 1023.5 |
| 20260905061656 | 69 | 180 | 0.0 | 29.5 | 0.00 | 0.00 | 0.00 | 57 | 1023.2 |
| 20260905061154 | 69 | 225 | 0.0 | 21.7 | 0.00 | 0.00 | 0.00 | 57 | 1022.8 |
| 20260905060652 | 69 | 0.9 | 25.2 | 0.00 | 0.00 | 0.00 | 56 | 1022.4 | |
| 20260905060149 | 70 | 0 | 0.9 | 20.0 | 0.00 | 0.00 | 0.00 | 56 | 1022.5 |
| 20260905055144 | 71 | 0 | 0.0 | 25.2 | 0.00 | 0.00 | 0.00 | 56 | 1022.5 |
| 20260905054642 | 71 | 0 | 0.0 | 37.4 | 0.00 | 0.00 | 0.00 | 55 | 1022.5 |
| 20260905054140 | 72 | 315 | 2.6 | 41.7 | 0.00 | 0.00 | 0.00 | 55 | 1022.1 |
| 20260905053637 | 73 | 315 | 0.9 | 41.7 | 0.00 | 0.00 | 0.00 | 55 | 1022.3 |
| 20260905053135 | 73 | 45 | 0.0 | 19.1 | 0.00 | 0.00 | 0.00 | 55 | 1021.7 |
| 20260905052632 | 73 | 0 | 0.0 | 20.9 | 0.00 | 0.00 | 0.00 | 55 | 1021.7 |
| 20260905052130 | 73 | 0.0 | 20.9 | 0.00 | 0.00 | 0.00 | 54 | 1021.4 | |
| 20260905051627 | 73 | 45 | 0.9 | 21.7 | 0.00 | 0.00 | 0.00 | 54 | 1021.4 |
| 20260905051125 | 73 | 45 | 1.7 | 40.0 | 0.00 | 0.00 | 0.00 | 54 | 1020.8 |
| 20260905050623 | 73 | 45 | 0.9 | 21.7 | 0.00 | 0.00 | 0.00 | 53 | 1020.6 |
| 20260905050120 | 73 | 45 | 2.6 | 20.9 | 0.00 | 0.00 | 0.00 | 53 | 1020.4 |
| 20260905045618 | 73 | 45 | 0.9 | 40.0 | 0.00 | 0.00 | 0.00 | 53 | 1020.3 |
| 20260905045115 | 73 | 315 | 1.7 | 20.0 | 0.00 | 0.00 | 0.00 | 52 | 1020.1 |
| 20260905044613 | 72 | 0 | 0.0 | 23.5 | 0.00 | 0.00 | 0.00 | 52 | 1020.2 |
| 20260905044111 | 72 | 0 | 1.7 | 20.9 | 0.00 | 0.00 | 0.00 | 51 | 1020.0 |
| 20260905043608 | 72 | 180 | 0.9 | 20.0 | 0.00 | 0.00 | 0.00 | 50 | 1019.7 |
| 20260905043106 | 71 | 0.9 | 20.0 | 0.00 | 0.00 | 0.00 | 49 | 1019.7 | |
| 20260905042603 | 71 | 315 | 0.0 | 20.9 | 0.00 | 0.00 | 0.00 | 48 | 1019.9 |
| 20260905042101 | 72 | 12.2 | 20.9 | 0.00 | 0.00 | 0.00 | 47 | 1019.8 | |
| 20260905041559 | 72 | 270 | 0.9 | 26.9 | 0.00 | 0.00 | 0.00 | 46 | 1019.9 |
| 20260905041056 | 74 | 45 | 0.9 | 25.2 | 0.00 | 0.00 | 0.00 | 44 | 1019.7 |
| 20260905040554 | 75 | 45 | 0.9 | 18.2 | 0.00 | 0.00 | 0.00 | 44 | 1019.8 |
| 20260905040051 | 75 | 45 | 0.9 | 37.4 | 0.00 | 0.00 | 0.00 | 44 | 1019.5 |
| 20260905035549 | 75 | 45 | 0.9 | 22.6 | 0.00 | 0.00 | 0.00 | 44 | 1019.6 |
| 20260905035046 | 75 | 0 | 0.9 | 21.7 | 0.00 | 0.00 | 0.00 | 44 | 1019.4 |
| 20260905034544 | 75 | 45 | 0.0 | 32.2 | 0.00 | 0.00 | 0.00 | 44 | 1019.4 |
| 20260905033539 | 76 | 45 | 8.7 | 35.6 | 0.00 | 0.00 | 0.00 | 43 | 1019.1 |
| 20260905033037 | 76 | 0 | 1.7 | 23.5 | 0.00 | 0.00 | 0.00 | 43 | 1019.3 |
| 20260905032534 | 77 | 45 | 13.9 | 34.8 | 0.00 | 0.00 | 0.00 | 43 | 1019.0 |
| 20260905032032 | 79 | 315 | 4.3 | 20.9 | 0.00 | 0.00 | 0.00 | 43 | 1018.9 |
| 20260905031530 | 79 | 45 | 0.9 | 22.6 | 0.00 | 0.00 | 0.00 | 43 | 1018.2 |
| 20260905031027 | 79 | 45 | 0.9 | 30.4 | 0.00 | 0.00 | 0.00 | 43 | 1017.9 |
| 20260905030525 | 79 | 315 | 0.0 | 36.5 | 0.00 | 0.00 | 0.00 | 42 | 1017.3 |
| 20260905030022 | 79 | 180 | 0.0 | 34.8 | 0.00 | 0.00 | 0.00 | 42 | 1017.2 |
| 20260905025520 | 79 | 225 | 1.7 | 38.2 | 0.00 | 0.00 | 0.00 | 42 | 1017.2 |
| 20260905025017 | 79 | 225 | 1.7 | 33.9 | 0.00 | 0.00 | 0.00 | 41 | 1017.0 |
| 20260905024515 | 79 | 180 | 2.6 | 36.5 | 0.00 | 0.00 | 0.00 | 40 | 1016.9 |
| 20260905023510 | 80 | 225 | 2.6 | 39.1 | 0.00 | 0.00 | 0.00 | 39 | 1017.0 |
| 20260905023008 | 81 | 180 | 0.9 | 41.7 | 0.00 | 0.00 | 0.00 | 39 | 1016.8 |
| 20260905022505 | 80 | 180 | 0.9 | 37.4 | 0.00 | 0.00 | 0.00 | 39 | 1016.7 |
| 20260905022003 | 82 | 180 | 1.7 | 20.0 | 0.00 | 0.00 | 0.00 | 38 | 1016.5 |
| 20260905021501 | 82 | 225 | 18.2 | 25.2 | 0.00 | 0.00 | 0.00 | 38 | 1016.3 |
| 20260905020958 | 81 | 225 | 1.7 | 27.8 | 0.00 | 0.00 | 0.00 | 38 | 1016.5 |
| 20260905020456 | 81 | 180 | 1.7 | 19.1 | 0.00 | 0.00 | 0.00 | 38 | 1016.4 |
| 20260905015953 | 81 | 225 | 1.7 | 20.9 | 0.00 | 0.00 | 0.00 | 38 | 1016.3 |
| 20260905015451 | 81 | 225 | 0.9 | 19.1 | 0.00 | 0.00 | 0.00 | 38 | 1016.4 |
| 20260905014949 | 82 | 180 | 1.7 | 33.0 | 0.00 | 0.00 | 0.00 | 38 | 1016.3 |
| 20260905014446 | 82 | 225 | 0.9 | 23.5 | 0.00 | 0.00 | 0.00 | 38 | 1016.2 |
| 20260905013944 | 82 | 180 | 0.0 | 35.6 | 0.00 | 0.00 | 0.00 | 38 | 1016.1 |
| 20260905013441 | 82 | 90 | 0.9 | 26.1 | 0.00 | 0.00 | 0.00 | 38 | 1016.1 |
| 20260905012939 | 82 | 180 | 1.7 | 29.5 | 0.00 | 0.00 | 0.00 | 39 | 1016.1 |
| 20260905012436 | 82 | 225 | 1.7 | 22.6 | 0.00 | 0.00 | 0.00 | 39 | 1016.0 |
| 20260905011934 | 82 | 180 | 2.6 | 26.9 | 0.00 | 0.00 | 0.00 | 39 | 1016.0 |
| 20260905011432 | 82 | 225 | 16.5 | 19.1 | 0.00 | 0.00 | 0.00 | 39 | 1016.0 |
| 20260905010929 | 82 | 225 | 20.0 | 44.3 | 0.00 | 0.00 | 0.00 | 40 | 1016.1 |
| 20260905010427 | 82 | 180 | 1.7 | 34.8 | 0.00 | 0.00 | 0.00 | 40 | 1016.0 |
| 20260905005924 | 82 | 180 | 1.7 | 27.8 | 0.00 | 0.00 | 0.00 | 40 | 1015.9 |
| 20260905005422 | 81 | 180 | 4.3 | 55.6 | 0.00 | 0.00 | 0.00 | 41 | 1015.8 |
| 20260905004920 | 81 | 180 | 1.7 | 20.0 | 0.00 | 0.00 | 0.00 | 41 | 1015.8 |
| 20260905004417 | 80 | 225 | 1.7 | 20.0 | 0.00 | 0.00 | 0.00 | 41 | 1015.8 |
| 20260905003915 | 80 | 225 | 18.2 | 20.0 | 0.00 | 0.00 | 0.00 | 41 | 1015.8 |
| 20260905003412 | 80 | 225 | 2.6 | 24.3 | 0.00 | 0.00 | 0.00 | 41 | 1015.9 |
| 20260905002910 | 80 | 225 | 0.0 | 17.4 | 0.00 | 0.00 | 0.00 | 42 | 1015.8 |
| 20260905002408 | 80 | 180 | 1.7 | 19.1 | 0.00 | 0.00 | 0.00 | 42 | 1015.8 |
| 20260905001905 | 80 | 225 | 2.6 | 28.7 | 0.00 | 0.00 | 0.00 | 42 | 1015.8 |
| 20260905001403 | 79 | 180 | 17.4 | 19.1 | 0.00 | 0.00 | 0.00 | 42 | 1015.7 |
| 20260905000900 | 80 | 180 | 0.0 | 20.9 | 0.00 | 0.00 | 0.00 | 42 | 1015.7 |
| 20260905000358 | 80 | 225 | 0.9 | 20.0 | 0.00 | 0.00 | 0.00 | 43 | 1015.6 |
| 20260904235855 | 80 | 180 | 0.0 | 19.1 | 0.00 | 0.00 | 0.00 | 43 | 1015.6 |
| 20260904235353 | 79 | 180 | 0.0 | 32.2 | 0.00 | 0.00 | 0.00 | 43 | 1015.5 |
| 20260904234851 | 79 | 180 | 0.0 | 30.4 | 0.00 | 0.00 | 0.00 | 44 | 1015.6 |
| 20260904234349 | 78 | 225 | 1.7 | 19.1 | 0.00 | 0.00 | 0.00 | 44 | 1015.5 |
| 20260904233846 | 78 | 180 | 0.9 | 13.9 | 0.00 | 0.00 | 0.00 | 44 | 1015.5 |
| 20260904232841 | 77 | 180 | 0.9 | 20.9 | 0.00 | 0.00 | 0.00 | 45 | 1015.5 |
| 20260904232339 | 77 | 225 | 2.6 | 19.1 | 0.00 | 0.00 | 0.00 | 46 | 1015.5 |
| 20260904231836 | 75 | 180 | 0.9 | 20.9 | 0.00 | 0.00 | 0.00 | 47 | 1015.4 |
| 20260904231334 | 72 | 180 | 0.0 | 19.1 | 0.00 | 0.00 | 0.00 | 47 | 1015.4 |
| 20260904230831 | 71 | 135 | 0.0 | 18.2 | 0.00 | 0.00 | 0.00 | 47 | 1015.4 |
| 20260904230329 | 70 | 135 | 0.0 | 9.6 | 0.00 | 0.00 | 0.00 | 46 | 1015.3 |
| 20260904225827 | 70 | 180 | 0.0 | 0.0 | 0.00 | 0.00 | 0.00 | 46 | 1015.2 |
| 20260904225324 | 70 | 225 | 0.0 | 19.1 | 0.00 | 0.00 | 0.00 | 46 | 1015.3 |
| 20260904224822 | 71 | 225 | 0.0 | 0.0 | 0.00 | 0.00 | 0.00 | 45 | 1015.2 |
| 20260904224319 | 71 | 180 | 0.0 | 0.0 | 0.00 | 0.00 | 0.00 | 45 | 1015.1 |
| 20260904223817 | 71 | 180 | 0.0 | 0.0 | 0.00 | 0.00 | 0.00 | 45 | 1015.0 |